When you browse on this site, cookies collect data to enhance your experience and personalize the content and advertising you see.
Visit our Privacy Policy to learn more. By continuing to use the site, you agree to this use of cookies and data.
  • In Czech Republic
  • List of Countries
  • For 7 days
  • Water Temperature
  • Satellite Maps
  • Weather Map
  • Weather Widgets
  • user-avatar
    Login

    Hourly Weather Watertown

    Today, 18 February, Monday

    Time Temperature Precipitation Wind Pressure Humidity
    00:00 -12°C° 0 mm 6 mps 739 mmHg 92%
    01:00 -12°C° 0.1 mm 6 mps 740 mmHg 91%
    02:00 -12°C° 0.1 mm 5 mps 740 mmHg 91%
    03:00 -12°C° 0.1 mm 5 mps 741 mmHg 91%
    04:00 -13°C° 0 mm 5 mps 741 mmHg 92%
    05:00 -14°C° 0 mm 4 mps 742 mmHg 92%
    06:00 -15°C° 0 mm 4 mps 743 mmHg 92%
    07:00 -15°C° 0 mm 4 mps 743 mmHg 92%
    08:00 -14°C° 0 mm 4 mps 744 mmHg 92%
    09:00 -14°C° 0 mm 4 mps 745 mmHg 92%
    10:00 -12°C° 0 mm 4 mps 746 mmHg 90%
    11:00 -9°C° 0 mm 3 mps 746 mmHg 88%
    12:00 -8°C° 0 mm 3 mps 747 mmHg 87%
    13:00 -8°C° 0 mm 3 mps 747 mmHg 85%
    14:00 -8°C° 0 mm 3 mps 748 mmHg 83%
    15:00 -7°C° 0 mm 2 mps 748 mmHg 81%
    16:00 -7°C° 0 mm 2 mps 748 mmHg 83%
    17:00 -8°C° 0 mm 2 mps 749 mmHg 85%
    18:00 -8°C° 0 mm 1 mps 749 mmHg 87%
    19:00 -8°C° 0 mm 1 mps 750 mmHg 87%
    20:00 -9°C° 0 mm 1 mps 750 mmHg 87%
    21:00 -10°C° 0 mm 0 mps 751 mmHg 86%
    22:00 -10°C° 0 mm 0 mps 751 mmHg 87%
    23:00 -11°C° 0 mm 0 mps 751 mmHg 87%

    Tomorrow, 19 February, Tuesday

    Time Temperature Precipitation Wind Pressure Humidity
    00:00 -11°C° 0 mm 1 mps 752 mmHg 87%
    01:00 -12°C° 0 mm 1 mps 752 mmHg 88%
    02:00 -12°C° 0 mm 1 mps 752 mmHg 88%
    03:00 -13°C° 0 mm 1 mps 752 mmHg 89%
    04:00 -13°C° 0 mm 1 mps 752 mmHg 90%
    05:00 -13°C° 0 mm 1 mps 752 mmHg 91%
    06:00 -14°C° 0 mm 1 mps 752 mmHg 92%
    07:00 -13°C° 0 mm 1 mps 753 mmHg 92%
    08:00 -11°C° 0 mm 1 mps 753 mmHg 91%
    09:00 -10°C° 0 mm 1 mps 753 mmHg 90%
    10:00 -9°C° 0 mm 1 mps 753 mmHg 88%
    11:00 -7°C° 0 mm 1 mps 753 mmHg 85%
    12:00 -6°C° 0 mm 1 mps 753 mmHg 83%
    13:00 -6°C° 0 mm 1 mps 752 mmHg 82%
    14:00 -4°C° 0 mm 1 mps 751 mmHg 81%
    15:00 -4°C° 0 mm 1 mps 750 mmHg 80%
    16:00 -4°C° 0 mm 1 mps 750 mmHg 83%
    17:00 -6°C° 0 mm 2 mps 750 mmHg 86%
    18:00 -7°C° 0 mm 2 mps 750 mmHg 89%
    19:00 -7°C° 0 mm 2 mps 749 mmHg 90%
    20:00 -8°C° 0 mm 2 mps 749 mmHg 92%
    21:00 -8°C° 0 mm 2 mps 749 mmHg 93%
    22:00 -8°C° 0 mm 2 mps 748 mmHg 93%
    23:00 -8°C° 0 mm 2 mps 748 mmHg 93%

    Day after tomorrow, 20 February, Wednesday

    Time Temperature Precipitation Wind Pressure Humidity
    00:00 -8°C° 0 mm 2 mps 747 mmHg 94%
    01:00 -8°C° 0 mm 3 mps 746 mmHg 93%
    02:00 -9°C° 0 mm 4 mps 744 mmHg 92%
    03:00 -8°C° 0 mm 4 mps 743 mmHg 91%
    04:00 -8°C° 0.4 mm 5 mps 742 mmHg 91%
    05:00 -8°C° 0.4 mm 6 mps 741 mmHg 92%
    06:00 -8°C° 0.4 mm 6 mps 741 mmHg 92%
    07:00 -7°C° 0.7 mm 7 mps 740 mmHg 92%
    08:00 -7°C° 0.7 mm 7 mps 739 mmHg 91%
    09:00 -7°C° 0.7 mm 7 mps 738 mmHg 91%
    10:00 -6°C° 0.4 mm 7 mps 737 mmHg 92%
    11:00 -6°C° 0.4 mm 7 mps 736 mmHg 92%
    12:00 -4°C° 0.4 mm 7 mps 735 mmHg 93%
    13:00 -4°C° 0.8 mm 6 mps 734 mmHg 93%
    14:00 -4°C° 0.8 mm 5 mps 732 mmHg 94%
    15:00 -4°C° 0.8 mm 5 mps 731 mmHg 95%
    16:00 -3°C° 0.7 mm 4 mps 731 mmHg 95%
    17:00 -2°C° 0.7 mm 3 mps 730 mmHg 96%
    18:00 -1°C° 0.7 mm 2 mps 729 mmHg 97%
    19:00 -1°C° 0.3 mm 2 mps 729 mmHg 97%
    20:00 -1°C° 0.3 mm 3 mps 730 mmHg 96%
    21:00 -2°C° 0.3 mm 4 mps 730 mmHg 96%
    22:00 -2°C° 0.1 mm 4 mps 730 mmHg 95%
    23:00 -2°C° 0.1 mm 5 mps 731 mmHg 93%

    21 February, Thursday

    Time Temperature Precipitation Wind Pressure Humidity
    00:00 -2°C° 0.1 mm 5 mps 731 mmHg 92%
    01:00 -2°C° 0 mm 5 mps 732 mmHg 91%
    02:00 -4°C° 0 mm 6 mps 733 mmHg 91%
    03:00 -5°C° 0 mm 6 mps 734 mmHg 90%
    04:00 -5°C° 0 mm 5 mps 735 mmHg 90%
    05:00 -6°C° 0 mm 5 mps 736 mmHg 90%
    06:00 -7°C° 0 mm 5 mps 737 mmHg 90%
    07:00 -6°C° 0 mm 5 mps 738 mmHg 89%
    08:00 -6°C° 0 mm 5 mps 739 mmHg 88%
    09:00 -6°C° 0 mm 5 mps 740 mmHg 87%
    10:00 -5°C° 0 mm 5 mps 740 mmHg 88%
    11:00 -4°C° 0 mm 4 mps 741 mmHg 89%
    12:00 -4°C° 0 mm 4 mps 741 mmHg 91%
    13:00 -4°C° 0 mm 4 mps 742 mmHg 90%
    14:00 -3°C° 0 mm 4 mps 742 mmHg 89%
    15:00 -3°C° 0 mm 4 mps 742 mmHg 88%
    16:00 -4°C° 0 mm 3 mps 742 mmHg 89%
    17:00 -4°C° 0 mm 3 mps 743 mmHg 90%
    18:00 -5°C° 0 mm 3 mps 743 mmHg 90%
    19:00 -5°C° 0 mm 2 mps 744 mmHg 91%
    20:00 -5°C° 0 mm 2 mps 744 mmHg 91%
    21:00 -6°C° 0 mm 2 mps 744 mmHg 91%
    22:00 -7°C° 0 mm 2 mps 745 mmHg 92%
    23:00 -7°C° 0 mm 1 mps 745 mmHg 92%

    22 February, Friday

    Time Temperature Precipitation Wind Pressure Humidity
    00:00 -8°C° 0 mm 1 mps 745 mmHg 93%
    01:00 -9°C° 0 mm 1 mps 745 mmHg 93%
    02:00 -9°C° 0 mm 1 mps 746 mmHg 93%
    03:00 -10°C° 0 mm 1 mps 746 mmHg 94%
    04:00 -10°C° 0 mm 1 mps 746 mmHg 94%
    05:00 -11°C° 0 mm 1 mps 746 mmHg 94%
    06:00 -11°C° 0 mm 1 mps 746 mmHg 94%
    07:00 -10°C° 0 mm 0 mps 747 mmHg 93%
    08:00 -8°C° 0 mm 0 mps 747 mmHg 91%
    09:00 -7°C° 0 mm 0 mps 747 mmHg 90%
    10:00 -5°C° 0 mm 0 mps 747 mmHg 89%
    11:00 -3°C° 0 mm 1 mps 747 mmHg 88%
    12:00 -1°C° 0 mm 1 mps 747 mmHg 87%
    13:00 -1°C° 0 mm 1 mps 746 mmHg 90%
    14:00 -2°C° 0 mm 2 mps 746 mmHg 93%
    15:00 -2°C° 0 mm 2 mps 745 mmHg 96%
    16:00 -3°C° 0 mm 2 mps 745 mmHg 95%
    17:00 -4°C° 0 mm 2 mps 744 mmHg 95%
    18:00 -6°C° 0 mm 3 mps 744 mmHg 95%
    19:00 -6°C° 0 mm 3 mps 743 mmHg 93%
    20:00 -7°C° 0 mm 3 mps 743 mmHg 92%
    21:00 -8°C° 0 mm 3 mps 743 mmHg 91%
    22:00 -6°C° 0.3 mm 3 mps 742 mmHg 92%
    23:00 -4°C° 0.3 mm 2 mps 742 mmHg 94%

    23 February, Saturday

    Time Temperature Precipitation Wind Pressure Humidity
    00:00 -2°C° 0.3 mm 2 mps 742 mmHg 95%
    01:00 -2°C° 0.8 mm 3 mps 741 mmHg 96%
    02:00 -1°C° 0.8 mm 3 mps 741 mmHg 97%
    03:00 -1°C° 0.8 mm 3 mps 740 mmHg 98%
    04:00 -1°C° 0.1 mm 3 mps 740 mmHg 98%
    05:00 -1°C° 0.1 mm 2 mps 740 mmHg 97%
    06:00 -1°C° 0.1 mm 2 mps 739 mmHg 97%
    07:00 -1°C° 0 mm 2 mps 739 mmHg 98%
    08:00 -1°C° 0 mm 2 mps 739 mmHg 99%
    09:00 +2°C° 0 mm 1 mps 739 mmHg 100%
    10:00 +2°C° 0 mm 1 mps 739 mmHg 100%
    11:00 +2°C° 0 mm 1 mps 739 mmHg 100%
    12:00 +2°C° 0 mm 1 mps 738 mmHg 100%
    13:00 +1°C° 0 mm 2 mps 738 mmHg 100%
    14:00 +1°C° 0 mm 2 mps 737 mmHg 99%
    15:00 +1°C° 0 mm 2 mps 737 mmHg 99%
    16:00 0°C° 0.1 mm 3 mps 737 mmHg 99%
    17:00 0°C° 0.1 mm 3 mps 737 mmHg 99%
    18:00 0°C° 0.1 mm 3 mps 737 mmHg 98%
    19:00 -1°C° 0.1 mm 4 mps 736 mmHg 98%
    20:00 -1°C° 0.1 mm 4 mps 735 mmHg 98%
    21:00 -1°C° 0.1 mm 5 mps 735 mmHg 97%
    22:00 -1°C° 0.1 mm 5 mps 734 mmHg 97%
    23:00 -2°C° 0.1 mm 6 mps 733 mmHg 97%
    Show more